Safford, AZ

10:07 PM MST on June 28, 2017 (GMT -0700)
Safford Regional

Weather History for KSAD - February, 2013

Change the Weather History Date:

Tuesday, February 19, 2013

  Actual Average Record
Temperature  
Mean Temperature 55 °F -  
Max Temperature 71 °F 64 °F 80 °F (1981)
Min Temperature 39 °F 33 °F 17 °F (1955)
Degree Days  
Heating Degree Days 10    
Growing Degree Days 5 (Base 50)    
Moisture  
Dew Point 21 °F    
Average Humidity 27    
Maximum Humidity 47    
Minimum Humidity 10    
Precipitation  
Precipitation 0.00 in - - ()
Sea Level Pressure  
Sea Level Pressure 29.76 in    
Wind  
Wind Speed 14 mph (SSE)    
Max Wind Speed 33 mph    
Max Gust Speed 40 mph    
Visibility 9 miles    
Events      
Averages and records for this station are not official NWS values.
T = Trace of Precipitation, MM = Missing Value Source: NWS Daily Summary

Daily Weather History Graph

Daily Weather History Graph

Search for Another Location

Airport or City:

Trip Planner

Search our weather history database for the weather conditions in past years. The results will help you decide how hot, cold, wet, or windy it might be!

Date:

Astronomy

Feb. 19, 2013 Rise Set
Actual Time 6:57 AM MST 6:07 PM MST
Civil Twilight 6:32 AM MST 6:32 PM MST
Nautical Twilight 6:03 AM MST 7:01 PM MST
Astronomical Twilight 5:34 AM MST 7:30 PM MST
Moon 12:51 PM MST (2/19) 2:22 AM MST (2/19)
Length of Visible Light 12h 00m
Length of Day
11h 10m
Waxing Gibbous, 68% of the Moon is Illuminated
Feb 19
Waxing Gibbous
Feb 25
Full
Mar 4
Last Quarter
Mar 11
New
Mar 19
First Quarter

Hourly Weather History & Observations

Time (MST) Temp. Windchill Dew Point Humidity Pressure Visibility Wind Dir Wind Speed Gust Speed Precip Events Conditions
12:51 AM 42.1 °F 36.1 °F 9.0 °F 26% 29.90 in 10.0 mi SSE 10.4 mph - N/A   Clear
1:51 AM 43.0 °F 37.7 °F 9.0 °F 25% 29.89 in 10.0 mi ESE 9.2 mph - N/A   Clear
2:51 AM 44.1 °F 39.0 °F 10.9 °F 26% 29.87 in 10.0 mi East 9.2 mph - N/A   Clear
3:51 AM 42.1 °F 37.1 °F 10.0 °F 27% 29.87 in 10.0 mi ESE 8.1 mph - N/A   Clear
4:51 AM 45.0 °F 39.3 °F 10.9 °F 25% 29.84 in 10.0 mi ESE 11.5 mph - N/A   Clear
5:51 AM 41.0 °F - 9.0 °F 27% 29.86 in 10.0 mi Calm Calm - N/A   Clear
6:51 AM 39.9 °F 35.1 °F 10.0 °F 29% 29.89 in 10.0 mi ESE 6.9 mph - N/A   Clear
7:51 AM 48.0 °F - 10.0 °F 22% 29.88 in 10.0 mi ESE 18.4 mph - N/A   Clear
8:51 AM 54.0 °F - 10.0 °F 17% 29.86 in 10.0 mi ESE 16.1 mph - N/A   Clear
9:51 AM 59.0 °F - 9.0 °F 14% 29.85 in 10.0 mi ESE 17.3 mph - N/A   Clear
10:51 AM 64.0 °F - 10.9 °F 13% 29.82 in 10.0 mi ESE 10.4 mph - N/A   Clear
11:51 AM 68.0 °F - 12.0 °F 11% 29.78 in 10.0 mi SE 15.0 mph 19.6 mph N/A   Clear
12:51 PM 70.0 °F - 17.1 °F 13% 29.73 in 10.0 mi South 15.0 mph 25.3 mph N/A   Clear
1:51 PM 71.1 °F - 12.0 °F 10% 29.67 in 10.0 mi SSW 23.0 mph 31.1 mph N/A   Clear
2:51 PM 71.1 °F - 14.0 °F 11% 29.65 in 10.0 mi SW 17.3 mph 27.6 mph N/A   Clear
3:09 PM 69.8 °F - 33.8 °F 27% 29.73 in 5.0 mi South 26.5 mph 34.5 mph N/A   Haze
3:22 PM 69.8 °F - 33.8 °F 27% 29.73 in 4.0 mi SSE 25.3 mph 33.4 mph N/A   Haze
3:51 PM 68.0 °F - 32.0 °F 26% 29.64 in 5.0 mi South 33.4 mph 39.1 mph N/A   Haze
4:10 PM 66.2 °F - 33.8 °F 30% 29.71 in 7.0 mi South 31.1 mph 40.3 mph N/A   Mostly Cloudy
5:51 PM 62.1 °F - 36.0 °F 38% 29.65 in 10.0 mi South 24.2 mph 32.2 mph N/A   Clear
6:51 PM 57.0 °F - 37.0 °F 47% 29.68 in 10.0 mi SE 17.3 mph - N/A   Mostly Cloudy
7:51 PM 57.9 °F - 35.1 °F 42% 29.67 in 10.0 mi SE 11.5 mph - N/A   Overcast
8:51 PM 57.0 °F - 33.1 °F 40% 29.65 in 10.0 mi SSE 19.6 mph 24.2 mph N/A   Mostly Cloudy
9:51 PM 57.0 °F - 34.0 °F 42% 29.63 in 10.0 mi SSE 20.7 mph - N/A   Overcast
10:51 PM 55.9 °F - 34.0 °F 44% 29.61 in 10.0 mi South 21.9 mph 31.1 mph N/A   Partly Cloudy
11:51 PM 54.0 °F - 34.0 °F 47% 29.59 in 10.0 mi South 21.9 mph - N/A   Clear